Location: Brownlee
(50.7397°N, 106.0159°W)
Time: 07:29:54
(UTC+00:00)

BlueWalker 3 - Visible Passes

Search period start: 30 November 2023 00:00
Search period end: 10 December 2023 00:00
Orbit: 489 x 504 km, 53.2° (Epoch: 29 November)

Date Brightness Start Highest point End Pass type
(mag) Time Alt. Az. Time Alt. Az. Time Alt. Az.
30 Nov 5.0 11:03:57 14° E 11:03:57 14° E 11:04:34 10° E visible
30 Nov 1.9 12:38:31 52° W 12:39:15 68° SSW 12:43:03 10° ESE visible
01 Dec 2.0 12:16:56 65° S 12:16:56 65° S 12:20:27 10° ESE visible
01 Dec 3.8 13:51:54 10° W 13:54:30 17° SW 13:57:04 10° S visible
02 Dec 3.2 11:55:24 37° SE 11:55:24 37° SE 11:57:51 10° ESE visible
02 Dec 3.8 13:29:58 13° W 13:31:53 18° SW 13:34:29 10° S visible
03 Dec 4.3 11:33:53 20° SE 11:33:53 20° SE 11:35:12 10° ESE visible
03 Dec 3.7 13:08:28 17° WSW 13:09:15 18° SW 13:11:53 10° S visible
04 Dec 5.1 11:12:26 11° ESE 11:12:26 11° ESE 11:12:33 10° ESE visible
04 Dec 3.8 12:47:00 18° SW 12:47:00 18° SW 12:49:15 10° S visible
05 Dec 4.2 12:25:36 14° SSW 12:25:36 14° SSW 12:26:36 10° S visible
